Tracking 19176 objects as of 26-May-2018
HD Live streaming from Space Station
objects crossing your sky now

OPS 5712 (P/L 152)

Track OPS 5712 (P/L 152) now!
10-day predictions
OPS 5712 (P/L 152) is classified as:


NORAD ID: 2873
Int'l Code: 1967-053G
Perigee: 903.5 km
Apogee: 913.7 km
Inclination: 70.0 °
Period: 103.0 minutes
Semi major axis: 7279 km
RCS: 0.648 m2 (medium)
Launch date: May 31, 1967
Source: United States (US)
Launch site: AIR FORCE WESTERN TEST RANGE (AFWTR)
aabbcc
Your satellite tracking list
Your tracking list is empty




NASA's NSSDC Master Catalog

Two Line Element Set (TLE):
1  2873U 67053G   18146.63133083 -.00000042 +00000-0 +82759-5 0  9991
2  2873 069.9749 251.8743 0007013 005.5300 092.8574 13.97787171597287
Source of the keplerian elements: AFSPC